Regional Weather Roundup
Issued by NWS Sterling, VA

Home | Current Version | Previous Version | Text Only | Print | Product List | Glossary On
Versions: 1 2 3 4 5 6 7 8 9 10 11 12 13 14 15 16 17 18 19 20 21 22 23 24 25 26 27 28 29 30 31 32 33 34 35 36 37 38 39 40 41 42 43 44 45 46 47 48
000
ASUS41 KLWX 311310
RWRLWX

REGIONAL WEATHER ROUNDUP
NATIONAL WEATHER SERVICE BALTIMORE MD/WASHINGTON DC
900 AM EDT FRI JUL 31 2015

Note: "FAIR" indicates few or no clouds below 12,000 feet
with no significant weather and/or obstructions to visibility.
 TC=TEMPERATURE CELSIUS

 * =Non NWS site. Station does not report precipitation (e.g. rain,
    snow, etc.), thunder, or fog.

DCZ001-MDZ009-015-VAZ040>042-051-053>054-311400-
WASHINGTON METRO

CITY           SKY/WX    TMP DP  RH WIND       PRES   REMARKS
WASHINGTON NAT SUNNY     82  62  50 NW9       29.96R
DULLES         SUNNY     76  62  62 NW8       29.97S
ANDREWS AFB    SUNNY     79  62  57 NW8       29.95S
FT BELVOIR     SUNNY     78  64  60 NW6       29.96R
QUANTICO       MOSUNNY   79  62  56 W5        29.97R
COLLEGE PARK*  SUNNY     79  61  53 W5        29.95S
LEESBURG*      SUNNY     79  64  61 W7        29.98S
MANASSAS*      SUNNY     79  64  61 CALM      29.97S
GAITHERSBURG*  SUNNY     75  64  69 W7        30.00S

$$

MDZ006>007-011-014-311400-
BALTIMORE METRO

CITY           SKY/WX    TMP DP  RH WIND       PRES   REMARKS
BWI AIRPORT    MOSUNNY   79  62  56 NW7       29.94S
MD SCIENCE CTR   N/A     80  60  50 MISG      29.94R
MARTIN STATE   SUNNY     79  66  65 CALM      29.95R
ANNAPOLIS      SUNNY     79  61  53 CALM      29.93S
FORT MEADE*    SUNNY     72  70  94 W3        29.97S

$$

MDZ012-015-019>023-311400-
MARYLAND EASTERN SHORE

CITY           SKY/WX    TMP DP  RH WIND       PRES   REMARKS
OCEAN CITY     SUNNY     81  64  56 N9        29.92R
SALISBURY      SUNNY     78  65  63 N8        29.93R
BAY BRIDGE AP*   N/A     79  63  57 W3        29.94S
CAMBRIDGE*     SUNNY     79  61  53 N3        29.93S
EASTON*        SUNNY     79  68  69 NW6       29.97R

$$

MDZ017>025-311400-
SOUTHERN MARYLAND

CITY           SKY/WX    TMP DP  RH WIND       PRES   REMARKS
PATUXENT RIVER MOSUNNY   78  66  66 NW10      29.94R
ST INIGOES     SUNNY     78  68  71 NW5       29.94R
LEONARDTOWN*   SUNNY     77  64  65 CALM      29.96S

$$

MDZ003>005-311400-
NORTH CENTRAL MARYLAND

CITY           SKY/WX    TMP DP  RH WIND       PRES   REMARKS
FREDERICK*     NOT AVBL
HAGERSTOWN APT SUNNY     76  59  55 W3        29.98S
WESTMINSTER*   SUNNY     73  63  68 W5        29.97S

$$

MDZ501>502-311400-
WESTERN MARYLAND

CITY           SKY/WX    TMP DP  RH WIND       PRES   REMARKS
OAKLAND*       SUNNY     64 N/A N/A W3        30.11S
CUMBERLAND*    SUNNY     72  61  68 CALM      30.05F

$$

VAZ025>031-311400-
SHENANDOAH VALLEY

CITY           SKY/WX    TMP DP  RH WIND       PRES   REMARKS
WINCHESTER*    SUNNY     79  59  50 W10       29.99S
FRONT ROYAL*   FAIR      70  63  78 S3        30.00S
LURAY*         FAIR      73  64  73 CALM      30.02S
NEW MARKET*    FAIR      70  62  76 SW3       30.02S
STAUNTON*      SUNNY     71  61  70 CALM      30.07S
WAYNESBORO*    FAIR      69  61  76 CALM      30.06S

$$

WVZ021-048>050-054>055-311400-
EASTERN WEST VIRGINIA PANHANDLE

CITY           SKY/WX    TMP DP  RH WIND       PRES   REMARKS
MARTINSBURG    MOSUNNY   77  59  53 W6        29.99R
PETERSBURG*    SUNNY     69  63  81 CALM      30.05S

$$

VAZ036>039-050-311400-
CENTRAL FOOTHILLS

CITY           SKY/WX    TMP DP  RH WIND       PRES   REMARKS
CHARLOTTESVILL SUNNY     76  65  68 CALM      30.01R
CULPEPER*      SUNNY     74  64  68 CALM      29.99S
ORANGE*        SUNNY     77  63  61 W3        30.00S
GORDONSVILLE*  FAIR      75  59  57 NW6       29.99S
WARRENTON*     FAIR      79  67  66 NW5       29.98S

$$

VAZ055>057-311400-
NORTH AND CENTRAL PIEDMONT

CITY           SKY/WX    TMP DP  RH WIND       PRES   REMARKS
FREDERICKSBRG* SUNNY     79  65  62 NW7       29.96S
STAFFORD*      SUNNY     76  62  61 NW8       30.01R

$$

NCZ024-NYZ072-PAZ021-071-VAZ022-071-311400-
OTHER REGIONAL OBSERVATIONS

CITY           SKY/WX    TMP DP  RH WIND       PRES   REMARKS
NEW YORK CITY  SUNNY     77  59  53 VRB3      29.91S
PHILADELPHIA   SUNNY     80  58  46 NW9       29.91S
PITTSBURGH     SUNNY     72  58  61 W5        30.01S
ROANOKE        SUNNY     73  60  63 CALM      30.08R
RICHMOND       MOSUNNY   80  63  55 N9        29.96R
RALEIGH        MOSUNNY   78  63  59 VRB6      29.99R

$$

ANZ530>537-311400-
MARINE OBSERVATIONS

STATION/POSITION TIME  TEMP    WIND        PRES
                       AIR SEA DIR/SP/G
                 (UTC) (F)     (DEG/KT/KT) (MB)
THOMAS PT LIGHT  NOT AVBL
BALT KEY BRIDGE  1200   76     270/  6/  7 1013.3R
COVE POINT       1200   76     350/ 12/ 14 1014.1R
LEWISETTA        1200   78 83  330/  7/ 10 1013.4R
SOLOMONS ISLAND  1200      82                N/A
PINEY POINT      1200          360/ 11/ 13   N/A

$$



USA.gov is the U.S. government's official web portal to all federal, state and local government web resources and services.